Regional Weather Roundup
Issued by NWS Grand Forks, ND

Home | Current Version | Previous Version | Text Only | Print | Product List | Glossary On
Versions: 1 2 3 4 5 6 7 8 9 10 11 12 13 14 15 16 17 18 19 20 21 22 23 24 25 26 27 28 29 30 31 32 33 34 35 36 37 38 39 40 41 42 43 44 45 46 47 48 49 50
000
ASUS43 KFGF 291731
RWRFGF
PRAIRIE TO PINES  WEATHER ROUNDUP
NATIONAL WEATHER SERVICE EASTERN NORTH DAKOTA/GRAND FORKS ND
1200 PM CDT THU SEP 29 2016

 **SATELLITE DATA USED TO AUGMENT SKY COVER AT AUTOMATED STATIONS**
 *****  WEATHER ACROSS EASTERN NORTH DAKOTA  *****

CITY           SKY/WX    TMP DP  RH WIND       PRES   REMARKS
GRAND FORKS    PTSUNNY   61  46  57 S12       30.46F
GRAND FRKS AFB MOSUNNY   62  47  56 S13       30.46F
GRAND FRKS NWS   N/A     63 N/A N/A S10         N/A
DEVILS LAKE    FAIR      60  49  66 S15       30.43F
FARGO          FAIR      62  45  53 S8        30.47F
WAHPETON ARPT  CLOUDY    61  43  51 S7        30.49S
$$

 ***** WEATHER ACROSS CENTRAL AND WESTERN NORTH DAKOTA  *****

CITY           SKY/WX    TMP DP  RH WIND       PRES   REMARKS
BISMARCK       SUNNY     62  47  57 S14       30.38F
MINOT          FAIR      65  47  52 SE16      30.33F
JAMESTOWN      FAIR      60  49  66 S12       30.44F
MINOT AFB      FAIR      64  47  52 S20       30.32F
GARRISON         N/A     62  48  60 S14G21    30.33F
WILLISTON      SUNNY     65  44  46 SE14G20   30.24F
DICKINSON      SUNNY     63  45  51 S20       30.26F
HETTINGER      SUNNY     65  45  48 SE18      30.30F
$$

 *****  OTHER AIRPORT OBSERVATIONS IN OUR AREA  *****

CITY           SKY/WX    TMP DP  RH WIND       PRES   REMARKS
WALHALLA       FAIR      61  57  88 S15G21    30.45S
GRAFTON AIRPOR FAIR      63  48  59 S12G20    30.48S
VALLEY CITY AR PTSUNNY   59  48  67 SE15      30.47F
CANDO          FAIR      63  50  63 S16G24    30.43F
CAVALIER APRT  FAIR      59  48  67 S12G18    30.45F
GWINNER        PTSUNNY   64  46  52 SE10G23   30.47S
SHEYENNE NWR     N/A     61  47  59 S7        29.95S
ROLLA          FAIR      59  46  63 S15G21    30.40F
 ***** THE ABOVE OBSERVATIONS ARE NON NWS ARE NOT QUALITY
       CONTROLLED AND MAY MIS-REPORT RAIN FOR SNOW...
$$

  *****  WEATHER ACROSS NORTHERN MINNESOTA  *****

CITY           SKY/WX    TMP DP  RH WIND       PRES   REMARKS
FLAG ISLAND    CLOUDY    59  50  72 CALM      30.50F
WARROAD        CLOUDY    59  48  67 NE7       30.51S
ROSEAU         FAIR      61  48  63 S7        30.50S HAZE
HALLOCK        PTSUNNY   61  48  63 S8G21     30.47F
THF RVR FALLS  PTSUNNY   59  45  59 S9        30.49F
BAUDETTE       CLOUDY    58  44  60 SE8       30.52S
WASKISH        CLOUDY    59  46  63 CALM      30.51S
CROOKSTON      PTSUNNY   61  46  59 S7        30.48F
STEPHEN NDAWN    N/A     61  46  59 S8          N/A
GREENBUSH NDAW   N/A     61  46  59 S7          N/A
$$
  *****  WEATHER ACROSS CENTRAL AND WEST MINNESOTA  *****

CITY           SKY/WX    TMP DP  RH WIND       PRES   REMARKS
FOSSTON        FAIR      61  43  51 S10       30.50S
BEMIDJI        CLOUDY    57  47  68 SE7       30.50F
PARK RAPIDS    CLOUDY    59  41  51 SE6       30.50F
ELBOW LAKE     CLOUDY    59  46  62 SE7       30.49F
WADENA         CLOUDY    57  45  62 E5        30.50S
DETROIT LAKES  CLOUDY    59  45  58 SE9       30.51S
MOORHEAD       FAIR      61  45  55 S8        30.49S
FERGUS FALLS   CLOUDY    59  45  58 SE6       30.51S
MORRIS MN      CLOUDY    66  46  48 SE13      30.48S
STAPLES        CLOUDY    57  45  62 SE6       30.50F
$$
  *****  WEATHER ELSEWHERE ACROSS MINNESOTA  *****

CITY           SKY/WX    TMP DP  RH WIND       PRES   REMARKS
DULUTH         PTSUNNY   58  49  72 E15       30.52S
INTRNTL FALLS  CLOUDY    58  49  72 SE5       30.52S
ELY            CLOUDY    54  43  66 E3        30.53F
CLOQUET        CLOUDY    57  46  67 E10       30.51F
WHEATON        FAIR      63  50  63 SE6       30.50F
BRAINERD       CLOUDY    58  47  66 VRB6      30.51F
HIBBING        CLOUDY    56  47  71 E8        30.52S
ALEXANDRIA     CLOUDY    59  48  67 SE7       30.51F
SAINT CLOUD    CLOUDY    60  50  69 NE6       30.50F
MINNEAPOLIS    PTSUNNY   60  48  64 NE9       30.48S
$$

  *****  WEATHER ACROSS SOUTH DAKOTA  *****

CITY           SKY/WX    TMP DP  RH WIND       PRES   REMARKS
SIOUX FALLS    FAIR      62  48  60 VRB6      30.47F
BROOKINGS      FAIR      58  46  64 SE5       30.47F
WATERTOWN      CLOUDY    59  46  62 SE7       30.47F
HURON          SUNNY     62  48  60 S9        30.45F
SISSETON         N/A     62  44  51 S9        30.47F
ABERDEEN       SUNNY     63  46  54 S9G18     30.45F
MITCHELL         N/A     63  48  58 S9        30.47F
PIERRE         LGT RAIN  64  45  49 SE20      30.37F
MOBRIDGE       SUNNY     65  45  48 SE17      30.36F
RAPID CITY     SUNNY     68  41  37 S18       30.29F
$$

  *****  SOME WEATHER IN NEARBY STATES *****

CITY           SKY/WX    TMP DP  RH WIND       PRES   REMARKS
GLASGOW MT     SUNNY     67  45  45 SE16G24   30.11F
GREAT FALLS MT MOSUNNY   64  48  56 NE3       30.10S
CHEYENNE WY    SUNNY     72  35  25 S8        30.38F
SCOTTSBLUFF NE SUNNY     66  45  46 E14       30.33F
OMAHA NE       FAIR      65  52  62 NW10      30.44F
DES MOINES IA  FAIR      68  50  52 N13G18    30.39S
DAVENPORT IA   FAIR      68  51  54 N18G24    30.28F
CHICAGO IL     LGT RAIN  62  58  86 NE16G28   30.19R FOG
EAU CLAIRE WI  FAIR      61  49  64 NE9       30.45F
LA CROSSE WI   FAIR      65  53  65 NW12      30.41F
$$

  *****  SOME NATIONAL WEATHER *****

CITY           SKY/WX    TMP DP  RH WIND       PRES   REMARKS
LA GUARDIA NY  CLOUDY    65  54  67 E17G25    30.37S
RALEIGH NC     PTSUNNY   76  68  76 E14G22    30.04F
ATLANTA GA     FAIR      75  53  46 NW14      30.02S
NEW ORLEANS LA FAIR      84  66  54 VRB6      30.08S
OKLAHOMA CITY  FAIR      66  48  52 NE15      30.38S
ALBUQUERQUE NM PTSUNNY   75  40  28 W6        30.41S
SALT LAKE CITY PTSUNNY   74  47  38 S16G28    30.23R
LOS ANGELES CA MOSUNNY   81  64  56 W6        30.03R
BOISE ID       SUNNY     82  42  24 SE18G26   30.02R
SEATTLE WA     PTSUNNY   56  47  71 N8        30.09R
$$

*** WEATHER ACROSS MANITOBA...SASKATCHEWAN AND ONTARIO ***
                ***ONTARIO***

CITY           SKY/WX    TMP DP  RH WIND       PRES   REMARKS
GERALDTON      PTSUNNY   57  48  72 VRB2      30.54F
THUNDER BAY    MOSUNNY   63  50  63 E7        30.53R
SIOUX LOOKOUT  CLOUDY    54  45  71 VRB2      30.54S
TORONTO        LGT RAIN  57  55  94 E16       30.32S FOG
BIG TROUT LK   CLOUDY    52  48  87 S5        30.50S
PICKLE LAKE    PTSUNNY   57  50  77 W3        30.52F
DRYDEN         CLOUDY    54  45  71 S5        30.54S
KENORA         CLOUDY    55  43  62 SE7       30.52S
$$
                *** MANITOBA***

CITY           SKY/WX    TMP DP  RH WIND       PRES   REMARKS
BRANDON        MOSUNNY   61  50  67 SE12      30.39F
DAUPHIN        MOSUNNY   57  50  77 E6        30.34F
ISLAND LAKE    PTSUNNY   54  50  87 S5        30.46
PILOT MOUND      N/A     61  48  63 S14         N/A
THE PAS        CLOUDY    52  48  87 SE9       30.33F
THOMPSON       PTSUNNY   50  39  66 S3        30.39F
WINNIPEG       PTSUNNY   63  48  59 S16       30.47F
LYNN LAKE      CLOUDY    54  34  47 SW12G20   30.32F
CHURCHILL      MOSUNNY   48  32  53 W3        30.34F
GILLAM         PTSUNNY   55  37  50 SW6       30.42F
$$
                ***SASKATCHEWAN***

CITY           SKY/WX    TMP DP  RH WIND       PRES   REMARKS
ESTEVAN        MOSUNNY   66  46  48 SE12G20   30.26S
KINDERSLEY     PTSUNNY   50  45  81 E13       30.13F
LLOYDMINSTER   PTSUNNY   52  43  71 E6        30.22S
PRINCE ALBERT  MOSUNNY   55  46  71 SE8       30.21F
REGINA         MOSUNNY   64  45  48 SE22      30.17S
YORKTON        SUNNY     61  46  59 SE16G25   30.25F
N. BATTLEFORD  SUNNY     52  45  76 E5        30.22R
LA RONGE       MOSUNNY   59  43  55 E5        30.27F
SASKATOON      PTSUNNY   55  48  76 NE10      30.17R
SWIFT CURRENT  SUNNY     64  52  63 S3        30.10S
$$
NOTE: THESE ARE AUTOMATED STATIONS WITH LIMITED QUALITY CONTROL
      "FAIR" INDICATES FEW OR NO CLOUDS BELOW 12,000 FEET WITH NO
      SIGNIFICANT WEATHER AND/OR OBSTRUCTIONS TO VISIBILITY.
      SKY/WX - SKY CONDITION AND SIGNIFICANT WEATHER.
      TMP - AIR TEMPERATURE.    DP   - DEWPOINT TEMPERATURE.
      RH  - RELATIVE HUMIDITY.  PRES - PRESSURE.
      HX  - HEAT INDEX.         WCI  - WIND CHILL INDEX.
$



USA.gov is the U.S. government's official web portal to all federal, state and local government web resources and services.